This is the latest recevied weather packets stored in our database for station/object NZ3C. If no packets are shown the sender has not sent any weather packets the latest 10 day(s).
| Time | Temp. | Humidity | Pressure | Rain* | Wind** | Luminosity | Snow |
|---|---|---|---|---|---|---|---|
| 1777682736 | 11.67° C | 91% | 1014.2 hPa | 0 mm | - | 0 W/m² | - |
| 1777682433 | 12.22° C | 92% | 1014.2 hPa | 0 mm | - | 0 W/m² | - |
| 1777682131 | 12.22° C | 91% | 1014.3 hPa | 0 mm | - | 0 W/m² | - |
| 1777681827 | 12.22° C | 91% | 1014.3 hPa | 0 mm | - | 0 W/m² | - |
| 1777681524 | 12.22° C | 91% | 1014.3 hPa | 0 mm | - | 0 W/m² | - |
| 1777681222 | 12.22° C | 91% | 1014.4 hPa | 0 mm | - | 0 W/m² | - |
| 1777680919 | 12.22° C | 91% | 1014.5 hPa | 0 mm | - | 0 W/m² | - |
| 1777680616 | 12.78° C | 90% | 1014.4 hPa | 0 mm | - | 0 W/m² | - |
| 1777680315 | 12.78° C | 89% | 1014.5 hPa | 0 mm | - | 1 W/m² | - |
| 1777680011 | 12.78° C | 90% | 1014.3 hPa | 0 mm | - | 2 W/m² | - |
| 1777679707 | 12.78° C | 90% | 1014.6 hPa | 0 mm | - | 2 W/m² | - |
| 1777679402 | 12.78° C | 90% | 1014.3 hPa | 0 mm | - | 4 W/m² | - |
| 1777679098 | 12.78° C | 88% | 1014.4 hPa | 0 mm | - | 5 W/m² | - |
| 1777678797 | 12.78° C | 87% | 1014.5 hPa | 0 mm | - | 5 W/m² | - |
| 1777678495 | 12.78° C | 88% | 1014.4 hPa | 0 mm | - | 4 W/m² | - |
| 1777678190 | 12.78° C | 86% | 1014.6 hPa | 0 mm | - | 5 W/m² | - |
| 1777677887 | 13.33° C | 86% | 1014.5 hPa | 0 mm | - | 6 W/m² | - |
| 1777677584 | 13.33° C | 86% | 1014.3 hPa | 0 mm | - | 28 W/m² | - |
| 1777677283 | 13.33° C | 86% | 1014.5 hPa | 0 mm | - | 28 W/m² | - |
| 1777676981 | 13.33° C | 85% | 1014.3 hPa | 0 mm | - | 27 W/m² | - |
| 1777676680 | 13.33° C | 84% | 1014.3 hPa | 0 mm | - | 37 W/m² | - |
| 1777676376 | 13.33° C | 83% | 1014.5 hPa | 0 mm | - | 41 W/m² | - |
| 1777676074 | 13.33° C | 84% | 1014.4 hPa | 0 mm | - | 67 W/m² | - |
| 1777675770 | 13.33° C | 86% | 1014.5 hPa | 0 mm | - | 95 W/m² | - |
| 1777675467 | 13.33° C | 87% | 1014.7 hPa | 0 mm | - | 35 W/m² | - |
* Rain latest hour (hover to see other rain measurements)
** Current wind speed in m/s (hover to see current wind gust speed)